Middlebury State AP, Middlebu, VT

2:49 AM EST on December 09, 2019 (GMT -0500)
Middlebury State AP, Middlebu

Weather History for K6B0 - October, 2019

Change the Weather History Date:

Tuesday, October 22, 2019

  Actual Average (KRUT) Record (KRUT)
Temperature  
Mean Temperature 49 °F -  
Max Temperature 59 °F 59 °F 83 °F (1979)
Min Temperature 39 °F 37 °F 20 °F (1948)
Degree Days  
Heating Degree Days 16    
Moisture  
Dew Point 43 °F    
Average Humidity 69    
Maximum Humidity 99    
Minimum Humidity 49    
Precipitation  
Precipitation 0.14 in - - ()
Sea Level Pressure  
Sea Level Pressure 29.98 in    
Wind  
Wind Speed 7 mph ()    
Max Wind Speed 18 mph    
Max Gust Speed 30 mph    
Visibility 9.4 miles    
Events Rain    
Averages and records for this station are not official NWS values.
T = Trace of Precipitation, MM = Missing Value Source: Averaged Metar Reports

Daily Weather History Graph

Daily Weather History Graph

Search for Another Location

Airport or City:

Astronomy

Oct. 22, 2019 Rise Set
Actual Time 7:15 AM EDT 5:57 PM EDT
Civil Twilight 6:46 AM EDT 6:26 PM EDT
Nautical Twilight 6:12 AM EDT 7:00 PM EDT
Astronomical Twilight 5:39 AM EDT 7:33 PM EDT
Moon 12:04 AM EDT (10/22) 3:20 PM EDT (10/22)
Length of Visible Light 11h 40m
Length of Day
10h 42m
Last Quarter, 37% of the Moon is Illuminated
Oct 22
Last Quarter
Oct 27
New
Nov 4
First Quarter
Nov 12
Full
Nov 19
Last Quarter

Hourly Weather History & Observations

Time (EDT) Temp. Windchill Dew Point Humidity Pressure Visibility Wind Dir Wind Speed Gust Speed Precip Events Conditions
12:36 AM 39.6 °F - 39.2 °F 99% 30.12 in 1.0 mi Calm Calm - N/A   Mist
12:56 AM 41.0 °F - 40.5 °F 98% 30.12 in 3.0 mi Calm Calm - N/A   Clear
1:15 AM 40.3 °F - 40.1 °F 99% 30.12 in 2.5 mi Calm Calm - N/A   Clear
1:16 AM 40.3 °F - 40.1 °F 99% 30.12 in 4.0 mi Calm Calm - N/A   Clear
1:35 AM 39.9 °F - 39.6 °F 99% 30.12 in 7.0 mi Calm Calm - N/A   Clear
1:40 AM 39.4 °F - 39.2 °F 99% 30.12 in 7.0 mi Calm Calm - N/A   Clear
2:15 AM 40.6 °F - 40.3 °F 99% 30.11 in 3.0 mi Calm Calm - N/A   Clear
2:35 AM 41.5 °F - 41.4 °F 99% 30.10 in 10.0 mi Calm Calm - N/A   Clear
2:36 AM 41.7 °F - 41.5 °F 99% 30.10 in 10.0 mi Calm Calm - N/A   Clear
2:55 AM 43.3 °F - 43.2 °F 99% 30.09 in 10.0 mi Calm Calm - N/A   Clear
3:17 AM 45.5 °F 40.3 °F 45.1 °F 99% 30.07 in 10.0 mi SSW 10.4 mph 17.3 mph N/A   Clear
3:35 AM 52.9 °F - 43.2 °F 70% 30.07 in 10.0 mi South 11.5 mph 18.4 mph N/A   Clear
3:55 AM 50.4 °F - 43.2 °F 76% 30.07 in 10.0 mi SW 9.2 mph 17.3 mph N/A   Clear
4:15 AM 50.9 °F - 42.4 °F 73% 30.07 in 10.0 mi South 10.4 mph 19.6 mph N/A   Clear
4:16 AM 51.1 °F - 42.4 °F 72% 30.06 in 10.0 mi South 10.4 mph 19.6 mph N/A   Clear
4:38 AM 54.3 °F - 41.0 °F 61% 30.04 in 10.0 mi SSE 12.7 mph 21.9 mph N/A   Clear
4:56 AM 54.9 °F - 40.8 °F 59% 30.05 in 10.0 mi South 11.5 mph 23.0 mph N/A   Clear
5:15 AM 55.4 °F - 41.9 °F 60% 30.06 in 10.0 mi SSE 12.7 mph 20.7 mph N/A   Clear
5:16 AM 55.4 °F - 41.9 °F 60% 30.07 in 10.0 mi South 11.5 mph 20.7 mph N/A   Clear
5:35 AM 50.0 °F - 42.4 °F 75% 30.08 in 10.0 mi SSW 5.8 mph 10.4 mph N/A   Clear
5:36 AM 50.0 °F - 42.4 °F 75% 30.08 in 10.0 mi SSW 5.8 mph 10.4 mph N/A   Clear
5:55 AM 47.5 °F - 42.4 °F 83% 30.09 in 10.0 mi South 3.5 mph - N/A   Clear
6:17 AM 52.0 °F - 42.6 °F 70% 30.05 in 10.0 mi SSE 6.9 mph - N/A   Clear
6:35 AM 54.7 °F - 41.7 °F 62% 30.04 in 10.0 mi SSE 9.2 mph - N/A   Clear
6:55 AM 55.0 °F - 41.9 °F 61% 30.03 in 10.0 mi SSE 11.5 mph 21.9 mph N/A   Clear
6:56 AM 55.0 °F - 41.9 °F 61% 30.03 in 10.0 mi SSE 10.4 mph 21.9 mph N/A   Clear
7:15 AM 53.2 °F - 42.8 °F 68% 30.07 in 10.0 mi SSW 6.9 mph - N/A   Clear
7:16 AM 53.2 °F - 42.8 °F 68% 30.07 in 10.0 mi SSW 6.9 mph - N/A   Clear
7:38 AM 52.2 °F - 43.0 °F 71% 30.07 in 10.0 mi South 6.9 mph - N/A   Clear
7:56 AM 54.1 °F - 42.4 °F 65% 30.04 in 10.0 mi SE 6.9 mph - N/A   Clear
8:16 AM 54.5 °F - 42.4 °F 64% 30.05 in 10.0 mi South 15.0 mph 21.9 mph N/A   Clear
8:36 AM 54.9 °F - 42.4 °F 63% 30.07 in 10.0 mi SSW 9.2 mph 19.6 mph N/A   Clear
8:55 AM 53.6 °F - 43.5 °F 69% 30.07 in 10.0 mi South 5.8 mph - N/A   Clear
9:18 AM 54.9 °F - 42.6 °F 63% 30.05 in 10.0 mi SSE 9.2 mph - N/A   Clear
9:35 AM 55.0 °F - 42.6 °F 63% 30.02 in 10.0 mi SSE 8.1 mph 16.1 mph N/A   Clear
9:55 AM 56.3 °F - 42.8 °F 61% 30.02 in 10.0 mi SSE 8.1 mph 20.7 mph N/A   Clear
9:56 AM 56.3 °F - 42.8 °F 61% 30.03 in 10.0 mi SSE 8.1 mph 17.3 mph N/A   Clear
10:15 AM 56.3 °F - 42.8 °F 61% 30.03 in 10.0 mi SSE 10.4 mph 18.4 mph N/A   Clear
10:16 AM 56.3 °F - 42.8 °F 61% 30.03 in 10.0 mi SSE 11.5 mph 18.4 mph N/A   Clear
10:39 AM 58.3 °F - 43.5 °F 58% 30.03 in 10.0 mi SSE 12.7 mph 19.6 mph N/A   Clear
10:56 AM 59.0 °F - 43.2 °F 56% 30.02 in 10.0 mi SE 4.6 mph - N/A   Clear
11:16 AM 59.0 °F - 42.8 °F 55% 30.03 in 10.0 mi South 9.2 mph 19.6 mph N/A   Clear
11:35 AM 58.6 °F - 42.8 °F 56% 30.02 in 10.0 mi SSE 8.1 mph 20.7 mph N/A   Clear
11:36 AM 58.5 °F - 42.6 °F 56% 30.02 in 10.0 mi SSE 9.2 mph 20.7 mph N/A   Clear
11:55 AM 58.5 °F - 42.3 °F 55% 30.03 in 10.0 mi South 11.5 mph 21.9 mph N/A   Clear
12:00 PM 58.5 °F - 42.8 °F 56% 30.02 in 10.0 mi SSE 6.9 mph 19.6 mph N/A   Clear
12:17 PM 58.6 °F - 42.1 °F 54% 30.01 in 10.0 mi South 11.5 mph 20.7 mph N/A   Clear
12:35 PM 58.3 °F - 42.6 °F 56% 30.01 in 10.0 mi SE 6.9 mph - N/A   Clear
12:55 PM 58.5 °F - 41.2 °F 53% 29.99 in 10.0 mi South 15.0 mph 19.6 mph N/A   Clear
12:56 PM 58.5 °F - 41.2 °F 53% 29.99 in 10.0 mi South 13.8 mph 19.6 mph N/A   Clear
1:15 PM 58.3 °F - 41.2 °F 53% 29.98 in 10.0 mi SSE 9.2 mph 17.3 mph N/A   Clear
1:16 PM 58.3 °F - 41.2 °F 53% 29.98 in 10.0 mi SSE 8.1 mph 17.3 mph N/A   Clear
1:38 PM 58.1 °F - 41.0 °F 53% 29.98 in 10.0 mi SSE 10.4 mph - N/A   Clear
1:56 PM 57.7 °F - 40.5 °F 53% 29.98 in 10.0 mi SSE 11.5 mph 19.6 mph N/A   Clear
2:15 PM 57.4 °F - 39.7 °F 52% 29.97 in 10.0 mi SSE 9.2 mph 16.1 mph N/A   Clear
2:35 PM 57.4 °F - 39.0 °F 50% 29.97 in 10.0 mi SSE 11.5 mph 21.9 mph N/A   Scattered Clouds
2:36 PM 57.4 °F - 39.0 °F 50% 29.97 in 10.0 mi SE 12.7 mph 21.9 mph N/A   Scattered Clouds
2:55 PM 57.4 °F - 38.8 °F 50% 29.95 in 10.0 mi SE 12.7 mph 18.4 mph N/A   Scattered Clouds
3:17 PM 57.2 °F - 37.9 °F 49% 29.93 in 10.0 mi SSE 12.7 mph 21.9 mph N/A   Mostly Cloudy
3:35 PM 57.2 °F - 38.1 °F 49% 29.92 in 10.0 mi SSE 10.4 mph 20.7 mph N/A   Scattered Clouds
3:55 PM 57.2 °F - 38.7 °F 50% 29.91 in 10.0 mi SSE 9.2 mph 19.6 mph N/A   Clear
3:56 PM 57.2 °F - 38.7 °F 50% 29.91 in 10.0 mi SE 6.9 mph 19.6 mph N/A   Clear
4:15 PM 57.2 °F - 40.3 °F 53% 29.93 in 10.0 mi South 10.4 mph - N/A   Mostly Cloudy
4:16 PM 57.4 °F - 40.3 °F 53% 29.93 in 10.0 mi South 9.2 mph - N/A   Mostly Cloudy
4:38 PM 57.4 °F - 41.5 °F 56% 29.91 in 10.0 mi SSE 13.8 mph 25.3 mph N/A   Overcast
4:56 PM 57.6 °F - 43.0 °F 58% 29.91 in 10.0 mi SSE 13.8 mph 21.9 mph N/A   Overcast
5:15 PM 57.2 °F - 43.9 °F 61% 29.90 in 10.0 mi SSE 12.7 mph 19.6 mph N/A   Overcast
5:35 PM 57.0 °F - 44.8 °F 64% 29.89 in 10.0 mi SSE 8.1 mph 19.6 mph N/A   Overcast
5:55 PM 56.7 °F - 45.7 °F 67% 29.90 in 10.0 mi SSE 9.2 mph 21.9 mph N/A   Overcast
6:17 PM 56.8 °F - 46.4 °F 68% 29.90 in 10.0 mi South 11.5 mph 21.9 mph N/A   Overcast
6:36 PM 56.3 °F - 46.4 °F 69% 29.89 in 10.0 mi SSE 10.4 mph 19.6 mph N/A   Mostly Cloudy
6:55 PM 56.3 °F - 46.6 °F 70% 29.90 in 10.0 mi SSE 12.7 mph 20.7 mph N/A   Mostly Cloudy
7:15 PM 56.5 °F - 47.1 °F 71% 29.91 in 10.0 mi South 10.4 mph 18.4 mph N/A   Overcast
7:16 PM 56.5 °F - 47.1 °F 71% 29.91 in 10.0 mi South 11.5 mph 18.4 mph N/A   Overcast
7:39 PM 56.5 °F - 47.3 °F 71% 29.92 in 10.0 mi SSE 10.4 mph 19.6 mph N/A   Overcast
7:57 PM 56.3 °F - 47.3 °F 72% 29.91 in 10.0 mi SSE 10.4 mph 23.0 mph N/A   Overcast
8:15 PM 56.3 °F - 47.3 °F 72% 29.90 in 10.0 mi SSE 13.8 mph 20.7 mph N/A   Overcast
8:16 PM 56.3 °F - 47.3 °F 72% 29.90 in 10.0 mi South 11.5 mph 17.3 mph N/A   Overcast
8:35 PM 55.8 °F - 46.9 °F 72% 29.89 in 10.0 mi South 10.4 mph 19.6 mph N/A   Overcast
8:55 PM 55.6 °F - 46.8 °F 72% 29.87 in 10.0 mi SSE 8.1 mph 18.4 mph N/A Rain Light Rain
9:18 PM 54.5 °F - 46.4 °F 74% 29.84 in 10.0 mi South 13.8 mph 25.3 mph N/A   Light Drizzle
9:36 PM 54.0 °F - 46.8 °F 77% 29.84 in 10.0 mi SSW 18.4 mph 29.9 mph N/A Rain Light Rain
9:55 PM 54.3 °F - 46.9 °F 76% 29.88 in 10.0 mi SE 6.9 mph 18.4 mph N/A Rain Light Rain
9:56 PM 54.1 °F - 46.9 °F 77% 29.88 in 10.0 mi SE 8.1 mph 18.4 mph N/A Rain Rain
10:15 PM 52.5 °F - 48.7 °F 87% 29.88 in 4.0 mi ESE 5.8 mph 16.1 mph 0.07 in Rain Heavy Rain
10:16 PM 52.3 °F - 48.9 °F 88% 29.87 in 4.0 mi ESE 5.8 mph 16.1 mph 0.07 in Rain Heavy Rain
10:38 PM 52.0 °F - 48.0 °F 86% 29.86 in 7.0 mi South 11.5 mph 29.9 mph 0.12 in Rain Rain
10:56 PM 52.2 °F - 47.5 °F 84% 29.84 in 10.0 mi South 17.3 mph 25.3 mph 0.13 in Rain Light Rain
11:16 PM 51.8 °F - 48.6 °F 89% 29.84 in 10.0 mi South 5.8 mph - 0.01 in Rain Light Rain
11:35 PM 53.2 °F - 47.3 °F 80% 29.81 in 10.0 mi South 17.3 mph 25.3 mph 0.01 in Rain Light Rain
11:36 PM 53.2 °F - 47.3 °F 80% 29.81 in 10.0 mi South 16.1 mph 25.3 mph 0.01 in Rain Light Rain
11:55 PM 52.9 °F - 47.5 °F 82% 29.78 in 10.0 mi ESE 15.0 mph 26.5 mph 0.01 in Rain Light Rain
11:59 PM 52.9 °F - 47.3 °F 81% 29.78 in 10.0 mi SE 15.0 mph 25.3 mph 0.01 in Rain Light Rain